Regional Weather Roundup
Issued by NWS

Home | Current Version | Previous Version | Graphics & Text | Print | Product List | Glossary On
Versions: 1 2 3 4 5 6 7 8 9 10 11 12 13 14 15 16 17 18 19 20 21 22 23 24 25 26 27
000
ASUS45 KCYS 161810
RWRWY

WYOMING REGIONAL WEATHER ROUNDUP
NATIONAL WEATHER SERVICE CHEYENNE WY
1100 AM MST THU NOV 16 2017

NOTE:  "FAIR" INDICATES FEW OR NO CLOUDS BELOW 12,000 FEET
WITH NO SIGNIFICANT WEATHER AND/OR OBSTRUCTIONS TO VISIBILITY.

WYZ001-161900-
YELLOWSTONE NATIONAL PARK

CITY           SKY/WX    TMP DP  RH WIND       PRES   REMARKS
LK YELLOWSTONE   N/A     33  32  96 VRB5      29.69F WCI  29
6HR MIN TEMP:  32; 6HR MAX TEMP:  33; 6HR PCP:  0.33;

W YELLOWSTONE  NOT AVBL

$$
WYZ002>013-054>058-071-098>099-161900-
NORTHERN WYOMING

CITY           SKY/WX    TMP DP  RH WIND       PRES   REMARKS
JACKSON        LGT RAIN  37  34  89 S20G25    29.76S WCI  27
CODY           FAIR      55  34  45 SW24G33   29.56S
GREYBULL       FAIR      56  30  37 SE17G24   29.55F
6HR MIN TEMP:  26; 6HR MAX TEMP:  56;

WORLAND        FAIR      58  33  39 S24G30    29.59F
6HR MIN TEMP:  35; 6HR MAX TEMP:  58;

SHERIDAN       FAIR      62  33  33 W7        29.51F
6HR MIN TEMP:  26; 6HR MAX TEMP:  62;

BUFFALO        FAIR      61  25  25 MISG      29.55F
6HR MIN TEMP:  47; 6HR MAX TEMP:  61;

GILLETTE       FAIR      61  24  24 SW24G32   29.58S
6HR MIN TEMP:  48; 6HR MAX TEMP:  62;

HULETT         FAIR      54  25  32 S18G26    29.60F
NEWCASTLE      FAIR      55  21  26 SE9G17    29.69S

$$
WYZ014>020-022>026-101>103-161900-
CENTRAL WYOMING

CITY           SKY/WX    TMP DP  RH WIND       PRES   REMARKS
BIG PINEY      FAIR      43  29  57 S8        29.85F
6HR MIN TEMP:  23; 6HR MAX TEMP:  43;

PINEDALE       CLOUDY    37  23  56 E5        29.87S WCI  34
DUBOIS         FAIR      41  28  60 W31G44    29.67F
LANDER         PTSUNNY   50  33  52 SW21G33   29.69R
6HR MIN TEMP:  44; 6HR MAX TEMP:  57;

RIVERTON       FAIR      55  28  35 W24       29.72F
6HR MIN TEMP:  28; 6HR MAX TEMP:  55;

CASPER         FAIR      60  18  19 SW29G37   29.72F
6HR MIN TEMP:  47; 6HR MAX TEMP:  60; 6HR PCP: TRACE;

DOUGLAS        FAIR      66  22  18 W24G36    29.69F
6HR MIN TEMP:  39; 6HR MAX TEMP:  66;


$$
WYZ021-027>030-104>119-161900-
SOUTHERN WYOMING

CITY           SKY/WX    TMP DP  RH WIND       PRES   REMARKS
EVANSTON       CLOUDY    50  27  40 SW23G35   29.86R
6HR MIN TEMP:  47; 6HR MAX TEMP:  51;

KEMMERER       FAIR      46  27  46 W17G25    29.87S
FORT BRIDGER   CLOUDY    57  26  30 SW30G37   29.88R
ROCK SPRINGS   FAIR      54  19  25 SW25G33   29.83F
6HR MIN TEMP:  40; 6HR MAX TEMP:  54;

DIXON          FAIR      56  15  19 S20G31    29.96F
RAWLINS        LGT RAIN  56  14  19 SW33G48   29.82F
6HR MIN TEMP:  44; 6HR MAX TEMP:  56; 6HR PCP: TRACE;

SARATOGA       FAIR      57  18  21 SW33G43   29.87F
LARAMIE        FAIR      58  20  22 SW30      29.86F
6HR MIN TEMP:  36; 6HR MAX TEMP:  59;

CHEYENNE       FAIR      63  21  20 S17G23    29.85F
6HR MIN TEMP:  30; 6HR MAX TEMP:  63;

TORRINGTON     FAIR      61  32  33 SE10      29.72F
6HR MIN TEMP:  28; 6HR MAX TEMP:  61;

PINE BLUFFS    FAIR      61  21  21 S14       29.83S

$$




USA.gov is the U.S. government's official web portal to all federal, state and local government web resources and services.